Terminal Aerodrome Forecast
Issued by NWS Sterling, VA

Home | Current Version | Previous Version | Text Only | Print | Product List | Glossary On
Versions: 1 2 3 4 5 6 7 8 9 10 11 12 13 14 15 16 17 18 19 20 21
000
FTUS41 KLWX 101502 AAC
TAFDCA
TAF AMD
KDCA 101502Z 1015/1112 30012G20KT P6SM FEW040 SCT120
     FM102300 31008KT P6SM SCT120
     FM110500 VRB03KT P6SM SCT120
     FM110700 VRB03KT P6SM BKN100=

USA.gov is the U.S. government's official web portal to all federal, state and local government web resources and services.